Home   Weather   Poprad   Past weeks
Flag for Slovakia

Past Weather in Poprad, Slovakia — Yesterday and Last 2 Weeks

Now
73 °F

Scattered clouds.


Feels Like: 77 °F
Forecast: 76 / 56 °F
Wind: 9 mph from Southwest

Location: Poprad / Tatry

Current Time: Jul 19, 2019 at 12:28:10 pm

Latest Report: Jul 19, 2019 at 12:00 pm


Visibility: N/A

Pressure: 30.04 "Hg (27.80 "Hg at 670m altitude)

Humidity: 41%

Dew Point: 48 °F

Location of PopradLocation

Past Weather in Poprad — Graph

°F

Poprad Temperature Yesterday

Maximum temperature yesterday: 70 °F (at 12:02 pm)
Minimum temperature yesterday: 43 °F (at 5:00 am)
Average temperature yesterday: 57 °F

High & Low Weather Summary for the Past Weeks

 TemperatureHumidityPressure
High81 °F (Jul 7, 12:30 pm)100% (Jul 12, 12:30 am)30.18 "Hg (Jul 12, 12:30 am)
Low39 °F (Jul 10, 5:30 am)24% (Jul 6, 3:00 pm)29.71 "Hg (Jul 7, 3:30 pm)
Average59 °F63%29.93 "Hg
* Reported Jul 4 11:00 am — Jul 19 11:30 am, Poprad. Weather by CustomWeather, © 2019

Note: Actual official high and low records may vary slightly from our data, if they occured in-between our weather recording intervals... More about our weather records

Advertising

Poprad Weather History for the Previous 24 Hours

Scroll right to see more
 ConditionsComfort  
Time TempWeatherWind HumidityBarometerVisibility
11:30 am
Fri, Jul 19
72 °FScattered clouds.12 mph47%30.04 "HgN/A
11:00 am70 °FPassing clouds.7 mph60%30.04 "HgN/A
10:30 am66 °FPassing clouds.5 mph68%30.07 "HgN/A
10:00 am64 °FPassing clouds.3 mph68%30.07 "HgN/A
9:30 am61 °FScattered clouds.1 mph77%30.07 "HgN/A
9:00 am61 °FScattered clouds.1 mph72%30.07 "HgN/A
8:30 am59 °FScattered clouds.3 mph82%30.07 "HgN/A
8:00 am59 °FPassing clouds.1 mph82%30.07 "HgN/A
7:30 am55 °FPassing clouds.2 mph88%30.04 "HgN/A
7:00 am52 °FFog.2 mph94%30.04 "HgN/A
6:30 am48 °FFog.1 mph94%30.04 "HgN/A
6:00 am45 °FFog.2 mph100%30.04 "HgN/A
5:30 am43 °FFog.1 mph100%30.04 "HgN/A
5:00 am43 °FFog.1 mph100%30.04 "HgN/A
4:30 am45 °FFog.1 mph93%30.04 "HgN/A
4:00 am45 °FFog.1 mph93%30.04 "HgN/A
3:30 am45 °FFog.2 mph93%30.04 "HgN/A
3:00 am45 °FClear.1 mph100%30.04 "Hg10 mi
2:30 am45 °FClear.2 mph100%30.04 "Hg10 mi
2:00 am46 °FClear.2 mph93%30.04 "Hg10 mi
1:30 am48 °FPassing clouds.5 mph94%30.04 "HgN/A
1:00 am48 °FClear.6 mph94%30.04 "Hg10 mi
12:30 am50 °FClear.5 mph94%30.04 "Hg10 mi
12:00 am48 °FClear.2 mph100%30.04 "Hg10 mi
11:30 pm
Thu, Jul 18
50 °FPassing clouds.5 mph94%30.04 "HgN/A
11:00 pm48 °FClear.5 mph94%30.01 "Hg10 mi
10:30 pm52 °FClear.5 mph94%30.01 "Hg10 mi
10:00 pm52 °FFog.5 mph94%30.01 "HgN/A
9:30 pm52 °FFog.3 mph100%30.01 "HgN/A
9:00 pm54 °FPassing clouds.5 mph94%30.01 "HgN/A
8:30 pm55 °FFog.2 mph94%30.01 "HgN/A
8:00 pm57 °FPassing clouds.1 mph94%29.98 "HgN/A
7:30 pm59 °FPassing clouds.3 mph88%29.98 "HgN/A
7:00 pm57 °FScattered clouds.5 mph94%29.98 "HgN/A
6:30 pm59 °FPartly sunny.6 mph88%29.98 "HgN/A
6:14 pm59 °FPartly sunny.3 mph88%29.98 "HgN/A
6:00 pm55 °FPartly sunny.3 mph94%29.98 "HgN/A
5:32 pm55 °FThunderstorms. Partly sunny.7 mph88%30.01 "HgN/A
5:18 pm55 °FThunderstorms. Partly sunny.17 mph88%30.01 "HgN/A
5:00 pm61 °FThunderstorms. Partly sunny.15 mph77%29.98 "HgN/A
4:30 pm66 °FThunderstorms. Scattered clouds.8 mph52%29.98 "HgN/A
4:00 pm68 °FThundershowers. Scattered clouds.8 mph49%29.98 "HgN/A
3:30 pm70 °FScattered clouds.8 mph46%29.98 "HgN/A
3:00 pm70 °FScattered clouds.6 mph43%29.95 "HgN/A
2:30 pm68 °FBroken clouds.8 mph46%29.98 "HgN/A
2:00 pm68 °FBroken clouds.6 mph46%29.98 "HgN/A
1:30 pm70 °FScattered clouds.6 mph43%29.98 "HgN/A
1:00 pm68 °FScattered clouds.7 mph46%29.98 "HgN/A
12:30 pm66 °FScattered clouds.8 mph46%29.98 "HgN/A
12:02 pm70 °FScattered clouds.3 mph43%29.98 "HgN/A
Weather by CustomWeather, © 2019

See weather overview